Weather History for CYYH - February, 2013

Change the Weather History Date:

Friday, February 15, 2013

  Actual Average Record
Temperature  
Mean Temperature -43 °F -  
Max Temperature -41 °F -16 °F -2 °F (2012)
Min Temperature -45 °F -28 °F -45 °F (2013)
Degree Days  
Heating Degree Days 108    
Moisture  
Dew Point -    
Average Humidity    
Maximum Humidity    
Minimum Humidity    
Precipitation  
Precipitation 0.00 in - - ()
Sea Level Pressure  
Sea Level Pressure 30.32 in    
Wind  
Wind Speed 8 mph ()    
Max Wind Speed 13 mph    
Max Gust Speed -    
Visibility 10.9 miles    
Events Snow    
Averages and records for this station are not official NWS values.
T = Trace of Precipitation, MM = Missing Value Source: Averaged Metar Reports

Daily Weather History Graph

Daily Weather History Graph

Search for Another Location

Airport or City:

Trip Planner

Search our weather history database for the weather conditions in past years. The results will help you decide how hot, cold, wet, or windy it might be!

Date:

Astronomy

Feb. 15, 2013 Rise Set
Actual Time 8:42 AM CST 4:16 PM CST
Civil Twilight 7:35 AM CST 5:23 PM CST
Nautical Twilight 6:25 AM CST 6:33 PM CST
Astronomical Twilight 5:16 AM CST 7:42 PM CST
Moon 7:45 AM CST (2/15) 12:41 AM CST (2/15)
Length of Visible Light 9h 47m
Length of Day
7h 34m
Waxing Crescent, 30% of the Moon is Illuminated
Feb 15
Waxing Crescent
Feb 17
First Quarter
Feb 25
Full
Mar 4
Last Quarter
Mar 11
New

Hourly Weather History & Observations

Time (CST) Temp. Windchill Dew Point Humidity Pressure Visibility Wind Dir Wind Speed Gust Speed Precip Events Conditions
12:00 AM -41 °F - - % 30.29 in 4 mi SE 10.4 mph - - Snow Snow
12:00 AM -40.0 °F -65.9 °F - N/A% 30.29 in 4.0 mi SE 10.4 mph - N/A   Ice Crystals
1:00 AM -40.0 °F -67.2 °F - N/A% 30.29 in 6.0 mi SE 11.5 mph - N/A   Ice Crystals
2:00 AM -40.0 °F -68.4 °F - N/A% 30.30 in 7.0 mi SSE 12.7 mph - N/A   Partly Cloudy
3:00 AM -41.8 °F -70.7 °F - N/A% 30.31 in 6.0 mi SSE 12.7 mph - N/A   Ice Crystals
4:00 AM -41.8 °F -68.2 °F - N/A% 30.32 in 5.0 mi SSE 10.4 mph - N/A   Ice Crystals
5:00 AM -41.8 °F -69.5 °F - N/A% 30.32 in 7.0 mi SSE 11.5 mph - N/A   Partly Cloudy
6:00 AM -43 °F - - % 30.32 in 7 mi SSE 11.5 mph - - Snow Snow
6:00 AM -43.6 °F -70.4 °F - N/A% 30.32 in 8.0 mi SSE 10.4 mph - N/A   Partly Cloudy
7:00 AM -41.8 °F -69.5 °F - N/A% 30.32 in 9.0 mi SSE 11.5 mph - N/A   Partly Cloudy
8:00 AM -43.6 °F -71.7 °F - N/A% 30.31 in 9.0 mi SSE 11.5 mph - N/A   Clear
9:00 AM -43.6 °F -70.4 °F - N/A% 30.31 in 9.0 mi SSE 10.4 mph - N/A   Clear
10:00 AM -43.6 °F -70.4 °F - N/A% 30.32 in 10.0 mi SSE 10.4 mph - N/A   Clear
11:00 AM -41.8 °F -65.1 °F - N/A% 30.32 in 15.0 mi SSE 8.1 mph - N/A   Clear
12:00 PM -42 °F - - % 30.31 in 15 mi South 8.1 mph - - Snow Snow
12:00 PM -41.8 °F -65.1 °F - N/A% 30.31 in 15.0 mi South 8.1 mph - N/A   Clear
1:00 PM -41.8 °F -63.3 °F - N/A% 30.32 in 15.0 mi South 6.9 mph - N/A   Clear
2:00 PM -41.8 °F -61.2 °F - N/A% 30.33 in 15.0 mi SSE 5.8 mph - N/A   Clear
3:00 PM -41.8 °F -63.3 °F - N/A% 30.33 in 15.0 mi South 6.9 mph - N/A   Clear
4:00 PM -41.8 °F -58.7 °F - N/A% 30.33 in 15.0 mi SE 4.6 mph - N/A   Clear
5:00 PM -43.6 °F -60.8 °F - N/A% 30.34 in 15.0 mi South 4.6 mph - N/A   Partly Cloudy
5:30 PM - - - N/A% - 15.0 mi South 5.8 mph - N/A   Partly Cloudy
6:00 PM -44 °F - - % 30.34 in 15 mi South 4.6 mph - - Snow Light Snow
6:00 PM -43.6 °F -60.8 °F - N/A% 30.34 in 15.0 mi South 4.6 mph - N/A   Partly Cloudy
7:00 PM -43.6 °F -57.7 °F - N/A% 30.34 in 15.0 mi South 3.5 mph - N/A   Partly Cloudy
8:00 PM -43.6 °F - - N/A% 30.33 in 15.0 mi South 2.3 mph - N/A   Clear
9:00 PM -43.6 °F - - N/A% 30.32 in 10.0 mi Calm Calm - N/A   Clear
10:00 PM -45.4 °F - - N/A% 30.32 in 10.0 mi Calm Calm - N/A   Clear
11:00 PM -45.4 °F - - N/A% 30.31 in 10.0 mi Calm Calm - N/A   Clear